Вернуться в каталог

SL-14 R/B

АктивенPO
NORAD 15890·ROCKET BODY·🇷🇺 Russia

Запущен Jul 8, 1985 с Plesetsk Cosmodrome

Loading…

Ближайшие Пролёты (ближайшие 24 часа)

TLE

СвежийSource: Space-Track

Эпоха: Sep 14, 2026, 04:55 UTC

1 15890U 85058B   26257.20515443  .00000294  00000-0  30823-4 0  9990
2 15890  82.5286 337.8110 0018694 235.5177 124.4275 14.85910545204459

Отслеживайте SL-14 R/B в реальном времени с AllMySat

Download on the App Store